Probability
3 3 3 1 0 0 0 0 0 0 0 1 2 4 7 7 8 11 17 23 26 26 27 29 33 33 28 20 14 9 7 5 4 3 3 3 2 1 0 0 0 0 0 0 0 0 0 0 0
2 4 4 1 0 0 0 0 0 0 1 2 3 4 7 9 12 16 20 24 28 28 28 30 34 35 31 23 16 11 7 5 4 3 3 3 1 0 0 0 0 0 0 0 0 0 0 0 0
2 4 4 1 0 0 0 0 0 0 1 2 3 4 6 10 14 17 21 26 29 29 29 30 34 36 33 27 19 12 8 6 4 3 3 2 1 0 1 1 1 0 0 0 0 0 0 0 0
2 3 3 1 0 0 0 0 0 0 0 1 2 5 7 9 12 16 21 26 28 28 27 29 33 35 33 29 22 14 9 6 4 3 3 2 1 0 1 2 1 0 0 0 0 0 0 0 0
3 2 1 0 0 0 0 0 0 0 0 1 3 7 10 11 13 17 22 25 27 26 26 28 31 32 31 28 24 17 11 8 5 4 3 2 0 0 1 2 1 0 0 0 0 0 0 0 0
2 2 1 0 0 0 0 0 0 0 0 1 3 8 12 15 16 18 21 23 23 24 25 27 28 29 29 28 25 19 14 10 8 5 4 2 1 1 2 2 1 0 0 0 0 0 0 0 0
1 1 0 0 0 0 0 0 0 0 0 0 3 8 13 16 17 18 20 21 21 22 23 25 25 25 26 26 23 18 13 10 8 7 6 4 2 2 3 3 2 0 0 0 0 0 1 1 1
0 0 0 0 0 0 0 0 0 0 1 1 4 7 11 14 16 18 20 20 20 20 21 21 21 21 22 22 19 15 11 8 6 6 6 4 3 3 3 2 1 0 0 0 0 0 1 2 2
0 0 0 0 0 0 0 0 0 1 3 5 7 8 10 11 14 17 19 20 19 19 19 19 18 18 19 18 16 12 8 6 5 4 4 4 3 2 2 1 0 0 0 0 0 1 1 1 1
0 0 0 0 0 0 0 0 0 1 4 7 9 10 9 9 11 13 15 16 16 16 17 17 16 16 16 14 12 9 7 6 5 4 3 3 1 1 1 0 0 0 0 0 1 2 1 0 0
0 0 0 0 0 0 0 0 0 1 4 6 8 8 7 7 8 10 11 11 12 13 13 14 14 14 13 10 7 6 6 6 5 4 3 2 1 0 0 0 0 0 0 0 1 2 2 1 0
0 0 0 0 0 0 0 0 0 0 1 2 4 5 6 6 6 7 9 10 10 10 11 12 12 11 9 6 4 4 5 6 5 4 3 2 1 0 0 0 0 0 0 0 0 1 1 1 0
0 0 0 0 0 0 0 0 0 0 0 0 1 3 4 4 4 5 8 9 9 9 9 10 10 10 8 5 4 3 4 4 4 3 2 2 1 0 0 0 0 0 0 0 0 0 0 0 0
0 0 0 0 0 0 0 0 0 0 0 0 0 1 1 2 3 4 6 7 7 7 7 7 8 8 7 5 4 3 3 2 2 1 1 1 0 0 0 0 0 0 0 0 0 0 0 0 0
0 0 0 0 0 0 0 0 0 0 0 0 0 0 0 1 2 3 3 4 5 5 6 5 5 5 5 5 4 2 1 1 0 0 0 0 0 0 0 0 0 0 0 0 0 0 0 0 0
0 0 0 0 0 0 0 0 0 0 0 0 0 0 0 0 1 1 1 1 2 3 4 4 3 3 3 3 2 1 0 0 0 0 0 0 0 0 0 0 0 0 0 0 0 0 0 0 0
0 0 0 0 0 0 0 0 0 0 0 0 0 0 0 0 0 0 0 0 0 1 2 3 3 2 1 1 1 0 0 0 0 0 0 0 0 0 0 0 0 0 0 0 0 0 0 0 0
0 0 0 0 0 0 0 0 0 0 0 0 0 0 0 0 0 0 0 0 0 0 1 2 1 1 0 0 0 0 0 0 0 0 0 0 0 0 0 0 0 0 0 0 0 0 0 0 0
0 0 0 0 0 0 0 0 0 0 0 0 0 0 0 0 0 0 0 0 0 0 0 0 0 0 0 0 0 0 0 0 0 0 0 0 0 0 0 0 0 0 0 0 0 0 0 0 0
0 0 0 0 0 0 0 0 0 0 0 0 0 0 0 0 0 0 0 0 0 0 0 0 0 0 0 0 0 0 0 0 0 0 0 0 0 0 0 0 0 0 0 0 0 0 0 0 0
0 0 0 0 0 0 0 0 0 0 0 0 0 0 0 0 0 0 0 0 0 0 0 0 0 0 0 0 0 0 0 0 0 0 0 0 0 0 0 0 0 0 0 0 0 0 0 0 0
0 0 0 0 0 0 0 0 0 0 0 0 0 0 0 0 0 0 0 0 0 0 0 0 0 0 0 0 0 0 0 0 0 0 0 0 0 0 0 0 0 0 0 0 0 0 0 0 0
0 0 0 0 0 0 0 0 0 0 0 0 0 0 0 0 0 0 0 0 0 0 0 0 0 0 0 0 0 0 0 0 0 0 0 0 0 0 0 0 0 0 0 0 0 0 0 0 0
0 0 0 0 0 0 0 0 0 0 0 0 0 0 0 0 0 0 0 0 0 0 0 0 0 0 0 0 0 0 0 0 0 0 0 0 0 0 0 0 0 0 0 0 0 0 0 0 0
0 0 0 0 0 0 0 0 0 0 0 0 0 0 0 0 0 0 0 0 0 0 0 0 0 0 0 0 0 0 0 0 0 0 0 0 0 0 0 0 0 0 0 0 0 0 0 0 0
0 0 0 0 0 0 0 0 0 0 0 0 0 0 0 0 0 0 0 0 0 0 0 0 0 0 0 0 0 0 0 0 0 0 0 0 0 0 0 0 0 0 0 0 0 0 0 0 0
0 0 0 0 0 0 0 0 0 0 0 0 0 0 0 0 0 0 0 0 0 0 0 0 0 0 0 0 0 0 0 0 0 0 0 0 0 0 0 0 0 0 0 0 0 0 0 0 0
0 0 0 0 0 0 0 0 0 0 0 0 0 0 0 0 0 0 0 0 0 0 0 0 0 0 0 0 0 0 0 0 0 0 0 0 0 0 0 0 0 0 0 0 0 0 0 0 0
0 0 0 0 0 0 0 0 0 0 0 0 0 0 0 0 0 0 0 0 0 0 0 0 0 0 0 0 0 0 0 0 0 0 0 0 0 0 0 0 0 0 0 0 0 0 0 0 0
0 0 0 0 0 0 0 0 0 0 0 0 0 0 0 0 0 0 0 0 0 0 0 0 0 0 0 0 0 0 0 0 0 0 0 0 0 0 0 0 0 0 0 0 0 0 0 0 0
Wind_Speed
5 3 2 3 4 2 4 4 2 1 1 1 1 5 7 4 3 4 2 3 6 6 6 7 8 9 9 10 9 9 8 7 7 7 7 7 6 6 6 5 5 5 5 5 5 5 5 4 4
1 1 3 4 4 3 4 4 3 3 4 3 3 4 6 4 2 4 2 4 7 7 6 6 9 9 10 10 9 8 7 7 6 6 6 5 5 5 5 5 4 4 4 4 3 3 3 3 3
2 0 3 3 4 6 5 4 4 1 1 2 4 4 5 3 2 1 2 5 7 6 5 6 9 9 9 9 9 8 7 6 6 5 5 4 4 4 4 4 4 3 3 3 2 2 2 2 2
1 2 3 3 5 5 4 3 3 1 3 3 4 5 3 3 0 2 4 7 7 5 4 6 9 9 8 8 7 7 6 6 5 5 4 3 3 3 3 3 3 3 2 2 2 1 1 1 1
2 3 3 2 5 3 2 2 1 2 1 2 4 5 3 4 2 4 6 7 8 5 4 5 8 8 8 7 6 6 5 5 4 4 4 3 3 2 2 2 2 2 2 2 2 1 2 2 2
2 3 4 4 4 2 2 1 1 2 2 2 4 5 2 2 3 4 6 7 7 6 5 4 7 7 7 7 6 5 4 4 3 3 3 2 2 2 1 1 2 2 2 3 3 3 3 3 3
3 3 4 5 3 1 1 1 2 3 3 2 3 5 3 1 2 4 6 7 6 6 5 4 3 4 5 5 5 4 3 3 2 2 2 1 1 0 1 1 1 2 3 3 3 4 4 4 4
3 3 3 3 4 2 1 2 2 3 2 1 3 7 5 3 3 5 6 6 6 5 5 4 3 3 2 2 4 4 3 3 3 2 2 1 1 0 0 1 1 2 2 3 4 4 5 5 5
3 3 2 3 4 3 1 2 2 2 4 3 3 2 5 6 5 6 6 6 5 5 4 4 4 3 2 2 3 3 3 3 3 2 2 2 0 0 0 1 1 2 2 3 4 4 5 5 5
4 3 3 2 3 3 1 2 1 3 4 3 4 5 6 6 6 7 6 5 4 3 3 3 3 3 3 2 2 1 2 2 2 1 1 1 0 1 1 1 2 2 3 3 4 4 4 3 2
2 3 1 1 1 3 2 2 1 4 1 2 6 6 5 6 5 6 5 4 4 3 3 3 3 3 3 2 2 1 1 1 2 2 1 1 1 1 1 1 1 2 2 2 3 3 2 2 2
3 1 1 1 0 2 2 2 3 1 3 3 5 6 5 6 5 5 5 4 4 4 2 2 2 3 3 2 2 2 1 1 1 1 2 1 1 1 1 0 1 1 1 1 1 1 2 3 3
3 1 2 2 5 4 5 3 3 1 1 3 6 6 6 6 5 4 4 4 4 3 2 2 2 2 2 2 2 2 2 1 1 1 2 1 1 1 1 1 1 1 1 1 2 2 2 3 3
2 2 2 3 4 3 4 2 3 2 2 5 6 5 5 6 5 4 4 4 3 3 2 2 2 2 2 2 2 1 1 1 1 2 2 2 1 1 1 1 1 1 1 1 2 2 2 3 3
3 4 4 4 2 1 4 4 0 3 4 5 5 5 5 4 5 5 4 4 3 3 2 1 2 3 3 2 2 2 1 2 2 2 2 3 2 1 1 1 1 2 2 2 2 2 2 2 3
3 4 3 3 2 1 4 1 3 2 5 4 4 4 4 3 4 4 4 4 3 3 2 2 2 3 2 2 2 1 2 2 2 2 2 3 3 2 1 1 1 2 2 1 2 1 2 2 2
4 2 1 2 2 2 3 3 3 2 5 5 4 4 4 3 3 3 4 4 3 3 2 2 2 2 2 2 2 2 2 2 2 2 2 3 3 3 2 1 1 2 1 1 2 2 1 2 3
1 1 1 0 2 2 1 2 3 2 4 5 4 4 4 4 4 4 3 3 3 2 2 2 2 2 2 2 2 2 2 2 2 2 2 2 2 3 2 2 2 2 1 1 2 2 2 2 3
3 3 2 1 1 1 0 3 4 3 3 4 4 5 5 5 3 3 3 3 3 2 1 1 1 1 2 1 1 1 1 2 2 2 2 2 3 3 2 2 3 2 1 2 2 2 2 2 2
3 3 2 2 2 1 1 4 4 4 5 6 7 6 6 4 3 3 3 3 2 2 1 0 0 0 0 0 0 0 0 1 1 1 2 3 3 3 3 3 3 3 2 2 2 1 1 2 1
4 2 1 1 3 4 2 5 3 3 2 3 4 5 5 6 6 5 4 3 2 2 2 1 1 1 0 0 1 1 1 2 2 2 2 2 2 2 2 3 3 3 2 2 3 2 1 2 2
1 1 0 1 3 2 2 2 6 3 3 3 4 4 5 5 5 5 5 4 4 4 2 2 2 1 0 0 1 1 0 1 1 1 2 2 2 2 2 2 2 2 2 3 3 2 2 2 2
1 1 1 2 3 2 2 1 8 3 3 5 5 5 5 5 6 6 5 5 4 4 3 2 2 1 1 0 1 0 0 1 1 1 2 2 2 2 2 2 2 2 2 3 3 3 2 1 2
1 4 4 5 5 1 2 2 6 4 4 3 3 4 5 4 4 4 4 3 2 2 2 2 2 2 1 1 1 1 2 2 2 2 2 2 2 2 2 2 2 2 2 3 3 3 2 2 2
5 5 5 5 4 4 2 2 9 6 4 4 4 4 4 4 4 3 4 4 3 3 3 3 3 3 2 2 2 2 2 3 3 3 2 2 2 2 3 2 2 2 3 3 2 2 2 2 2
1 4 5 3 3 5 3 5 7 4 2 1 2 2 2 2 3 4 4 5 4 5 4 4 4 4 3 3 3 3 3 2 2 3 2 2 2 3 3 2 3 3 3 3 2 2 2 2 2
1 1 3 5 1 2 5 7 7 1 1 1 1 1 1 2 3 3 3 4 4 4 5 5 5 4 4 4 3 3 3 3 3 3 3 2 3 2 2 2 3 3 3 2 2 2 2 2 2
2 3 4 3 2 3 5 5 5 4 3 2 1 2 3 3 3 3 3 4 4 4 4 4 4 5 4 4 3 3 3 4 3 3 3 3 3 3 3 3 3 3 3 2 2 2 2 2 2
1 1 2 2 3 4 3 8 5 5 4 3 3 4 4 4 4 4 3 3 3 3 3 4 4 4 4 4 4 4 4 3 3 3 4 4 3 3 3 3 3 3 3 3 2 2 2 2 2
3 3 4 3 3 3 3 9 4 3 2 2 3 3 3 3 3 3 3 3 3 3 4 4 4 5 5 4 4 4 4 3 4 4 5 4 4 3 3 3 3 4 3 3 3 3 2 2 3
Wind_Direction
308 339 55 64 71 83 221 238 222 156 144 192 80 98 105 98 128 154 169 125 126 138 142 139 131 129 130 127 123 120 119 116 115 114 113 110 107 105 103 103 104 101 95 100 101 102 102 102 104
5 354 62 76 121 173 242 237 217 206 178 146 69 73 79 76 67 101 114 128 129 134 134 134 127 126 129 129 126 123 121 119 118 117 118 117 114 110 108 105 99 95 91 97 103 103 109 111 116
336 114 103 105 156 187 208 220 208 246 21 96 77 50 75 80 62 103 143 133 120 121 125 131 125 123 124 127 126 124 123 121 119 117 115 117 119 119 117 114 106 101 98 104 114 118 117 133 146
67 69 72 119 198 215 202 212 179 142 31 50 102 71 55 7 18 139 131 118 110 109 113 125 121 119 117 119 125 124 124 122 120 122 121 122 122 125 123 120 119 116 118 125 139 150 167 188 212
68 104 112 176 216 229 233 249 173 128 69 55 98 99 64 342 48 105 113 111 111 107 108 121 113 114 113 112 113 121 125 125 124 127 133 131 129 133 138 139 146 154 168 174 185 205 220 239 250
81 100 132 185 214 235 252 253 118 108 103 75 89 105 108 343 70 96 103 105 109 110 104 110 108 106 107 109 108 108 116 123 122 125 134 138 140 148 160 171 178 188 200 209 219 232 242 256 263
124 127 153 168 176 217 263 344 121 121 102 112 121 110 131 29 84 105 98 98 97 99 96 88 90 97 100 99 100 101 98 100 107 107 102 103 94 121 204 214 216 215 218 226 233 241 250 259 266
141 115 130 162 161 215 269 35 53 101 113 51 106 132 159 180 138 101 92 86 83 83 83 80 75 77 92 96 88 82 81 74 65 70 66 54 43 5 332 269 265 250 240 242 245 249 256 264 268
100 85 168 183 170 201 191 76 5 15 84 44 41 124 145 138 122 101 92 80 72 68 65 71 68 62 62 88 69 64 67 59 54 46 60 58 25 286 245 295 294 277 270 263 260 261 266 271 270
97 139 202 198 182 173 134 105 123 49 42 58 59 67 108 116 112 115 113 107 97 83 66 68 68 61 53 56 60 43 46 43 36 25 25 22 5 328 343 308 307 305 294 288 282 278 276 275 279
121 166 193 339 188 152 115 74 73 113 67 180 147 138 129 116 108 117 119 119 118 110 79 59 66 64 59 49 51 45 37 32 25 24 16 19 13 1 4 352 321 313 313 303 298 291 281 269 268
98 30 49 307 157 103 110 97 56 97 204 195 158 143 137 129 127 132 130 124 113 100 82 61 57 59 53 53 43 54 45 32 25 7 14 45 29 9 351 324 304 307 300 290 287 279 274 272 267
83 60 25 57 64 78 79 78 91 336 179 132 124 120 131 132 131 125 124 119 112 101 84 62 61 62 55 54 36 43 36 30 12 3 1 27 46 357 345 324 315 298 293 283 283 282 277 273 273
128 80 18 23 49 42 82 46 83 248 155 127 128 134 142 141 140 130 124 120 119 115 98 66 61 60 63 61 49 40 27 21 15 6 352 358 12 360 347 341 331 315 304 288 277 279 276 271 270
93 57 16 14 46 76 88 30 228 211 146 135 141 143 142 144 138 143 146 141 138 132 113 87 83 61 56 51 40 40 24 32 22 2 358 1 3 5 6 347 326 314 314 311 305 303 301 300 298
59 49 37 343 21 84 104 195 251 190 141 150 154 149 144 152 150 147 141 132 130 125 105 63 61 58 52 49 36 28 25 33 19 4 6 9 8 16 20 1 324 315 323 328 321 323 316 311 304
43 74 86 334 360 54 110 213 251 191 155 168 171 166 159 156 155 155 146 140 132 126 119 85 59 52 40 42 38 38 36 31 15 12 16 9 3 3 4 349 322 324 331 332 322 330 310 301 299
156 128 131 241 328 61 96 249 262 223 173 182 182 180 179 178 188 171 157 147 131 115 111 107 70 47 46 44 38 30 29 16 16 16 8 7 359 358 356 345 335 338 337 327 317 307 306 288 288
137 120 104 277 316 66 203 262 260 244 202 202 198 193 196 199 196 169 163 155 131 113 97 102 91 44 45 39 40 30 357 345 359 2 357 3 4 0 360 351 336 336 328 311 312 306 301 301 305
86 85 43 346 357 52 323 285 269 239 215 205 197 197 196 194 186 188 176 161 153 153 163 169 150 101 48 39 166 195 230 293 315 339 353 1 3 355 355 354 335 334 329 323 318 310 296 289 309
43 110 182 268 356 26 30 329 295 273 244 216 202 197 194 192 194 196 189 185 175 184 196 200 212 204 281 8 45 31 28 6 3 355 349 346 352 354 349 343 336 331 329 314 303 290 268 278 287
29 317 107 70 69 337 61 292 288 276 267 237 222 207 201 197 190 190 190 190 196 208 203 211 214 208 210 96 86 83 73 278 283 305 313 324 340 342 346 342 336 328 324 317 308 305 275 253 268
204 318 43 70 91 20 13 147 284 306 256 248 228 219 210 200 189 191 195 197 197 192 188 206 209 224 227 149 151 143 255 253 280 305 318 326 331 340 346 341 336 327 318 309 308 309 294 261 247
59 44 48 48 63 9 261 171 276 254 237 240 224 215 214 205 196 197 198 184 183 180 190 203 205 232 232 217 218 212 239 257 284 298 302 312 314 324 334 335 328 316 309 301 299 298 294 282 267
48 69 38 11 10 262 284 209 253 260 248 216 205 205 209 201 192 192 188 190 195 198 207 208 209 231 236 228 236 235 238 239 244 262 267 280 295 300 309 321 318 309 298 296 298 299 294 290 274
8 116 143 183 229 283 318 245 257 282 287 225 180 176 180 191 199 204 205 202 205 210 210 208 214 229 232 229 239 243 241 237 242 245 245 253 260 267 283 296 297 295 297 302 302 293 290 290 276
86 100 156 130 144 283 282 285 301 308 13 44 79 88 242 233 227 226 224 219 218 219 217 212 216 230 234 230 233 241 240 236 240 242 241 249 256 268 274 285 291 292 295 295 295 290 292 292 277
130 140 93 117 159 264 289 274 252 248 234 237 232 236 253 252 245 242 239 235 233 230 229 226 222 227 234 233 231 236 239 238 238 236 243 248 256 262 268 276 280 286 290 290 286 285 287 292 287
164 141 121 130 163 173 263 271 232 211 205 207 237 249 243 237 240 241 245 246 240 239 234 232 234 235 239 236 237 241 244 245 242 239 242 242 249 253 259 265 272 276 278 280 280 281 289 288 295
193 191 149 157 230 190 207 268 270 207 189 192 241 260 260 255 250 246 251 258 253 247 242 238 236 234 236 231 234 241 246 248 247 246 248 245 246 248 251 259 266 269 271 267 264 271 277 270 275